Coleman A. Young Municipal Airport
KDET : now visible

Airfield :











YOU CAN JOIN US ON...

 
LOGIN :

Register | Disclaimer

   EN    FR    IT 

 









Legend :    VFR   Marginal VFR   IFR   Intensive IFR   Very Intensive IFR
Visi :
Ceiling :
>= 8 km
>= 3000ft
5 to 8 km
1000 to 3000 ft
1500m to 5 km
500 to 1000 ft
800 to 1500m
200 to 500 ft
< 800m
< 200 ft
Symbols :   Thunderstorms  Fog  Heavy snow  Heavy precipitations  Wind > 20 kt







- Airport Elevation : 626 ft
- IATA code : DET


KDET - Coleman A. Young Municipal

CURRENT METAR :
  • 191353Z 26010KT 10SM FEW019 29/24 A2987 RMK AO2 SLPNO T02940244

EXPIRED METARs :
  • 191253Z 26009KT 10SM CLR 28/24 A2986 RMK AO2 SLPNO T02830239
  • 191153Z 24011KT 10SM SCT060 27/24 A2984 RMK AO2 SLPNO T02720239 10272 20256 51006

TAF KDET
Valid from the 19 at 12:00 until the 20 at 12:00 UTC


191137Z 1912/2012 22012KT P6SM SCT045 BKN080 OVC200
TEMPO 1912/1914 BKN025 OVC045
FM191700 24013G20KT P6SM BKN050
TEMPO 1919/1923 2SM TSRA OVC030CB
FM200100 22008KT P6SM SCT080 SCT250
KZOB FIR / North America



MET'MAP, your aeronautical weather chart ! - Copyright ORBIFLY December 2007 - Disclaimer

ORBIFLY MET'MAP TEAM :

Programming & Development : Alexandra Zaïnal
Concept & Development : Baudouin d'Aumeries
Co-Development & Prog : Marc-Olivier Méhu
Technical & hardware support : Manuel Goepfert

Contact : metmap@orbifly.com




SOURCES & CREDITS :

   NOAA       Earth
Advisory